Content
SEND FEEDBACK

Daily
Averages
Monthly
Summary
United States of America

ANN ARBOR, MICHIGAN


Home > North America > United States > Michigan
Elevation: 231 meters     Latitude: 42 17N     Longitude: 083 43W

WEATHER
 
SELECT A DAY
Number of Records: 203,923;   Date Range: 1/1/95 - 8/30/14
 
SHARE

PRINT THIS DATA

[ ← Previous Day ]
WEATHER ALMANAC - 6 FEBRUARY, 2013
[ Next Day → ]
[ °F ]   °C
Weather ElementAverageHighLow
Temperature-5.8 °C-2.2 °C (1:53 pm)-15 °C (7:53 am)
Dewpoint-10.5 °C-7.2 °C (1:53 am)-16.7 °C (7:53 am)
Humidity70.7 %92 % (6:53 am)56 % (12:53 pm)
Barometer1023.4 hPa1027.1 hPa (7:53 pm)1016.3 hPa (2:13 am)
Wind Speed6.9 km/h22.2 km/h (2:13 am)
Wind Gust33.3 km/h (1:53 am)
Weather ElementAverage
Visibility15.8 km
Wind DirectionSSE (155.6 °)

Weather ElementTotal
Precipitation---
Heating Degree Days26.9 (Base 18.3)
Averaged from 25 records on 6 February, 2013
WEATHER CONDITIONS BREAKOUT
WIND DIRECTION BREAKOUT
WEATHER BY HOUR - 6 FEBRUARY, 2013
[ °F ]   °C
Local TimeTemperatureDewpointHumidityBarometerVisibilityWind DirectionWind SpeedGust SpeedPrecipitationEventsConditions
1:53 AM-3.9 °C-7.2 °C78 %1017.3 hPa11.3 kmNNW (330°)20.4 km/h33.3 km/h0 mmSnowLight Snow
2:13 AM-4 °C-8 °C74 %1016.3 hPa14.5 kmNNW (330°)22.2 km/h0 mmOvercast
2:53 AM-4.4 °C-10 °C65 %1018.6 hPa16.1 kmNNW (330°)14.8 km/h0 mmOvercast
3:17 AM-4 °C-8 °C74 %1017.9 hPa16.1 kmNorth (350°)14.8 km/hOvercast
3:49 AM-6 °C-10 °C74 %1018.3 hPa16.1 kmNNW (340°)11.1 km/hScattered Clouds
3:53 AM-5.6 °C-10 °C72 %1019.6 hPa16.1 kmNNW (340°)9.3 km/hPartly Cloudy
4:53 AM-8.3 °C-11.1 °C81 %1020.7 hPa16.1 kmWNW (290°)9.3 km/hOvercast
5:53 AM-8.9 °C-11.7 °C81 %1021.7 hPa16.1 kmNW (310°)5.6 km/hClear
6:53 AM-12.8 °C-13.9 °C92 %1022.4 hPa16.1 kmCalmClear
7:53 AM-15 °C-16.7 °C87 %1024.4 hPa14.5 kmCalmClear
8:53 AM-12.2 °C-13.3 °C92 %1024.7 hPa16.1 kmCalmClear
9:53 AM-6.7 °C-11.7 °C68 %1025.1 hPa16.1 kmCalmClear
10:53 AM-3.9 °C-10 °C63 %1025.4 hPa16.1 kmCalmClear
11:53 AM-2.8 °C-9.4 °C61 %1025.4 hPa16.1 kmCalmClear
12:53 PM-2.8 °C-10.6 °C56 %1025.1 hPa16.1 kmWest (270°)9.3 km/hClear
1:53 PM-2.2 °C-8.9 °C61 %1025.4 hPa16.1 kmWest (270°)11.1 km/hClear
2:53 PM-2.2 °C-8.9 °C61 %1025.1 hPa16.1 kmCalmClear
3:53 PM-2.2 °C-8.3 °C63 %1025.1 hPa16.1 kmSouth (190°)13 km/hClear
4:53 PM-2.8 °C-9.4 °C61 %1025.1 hPa16.1 kmSouth (180°)14.8 km/hClear
5:53 PM-3.9 °C-11.1 °C58 %1026.1 hPa16.1 kmSSW (200°)9.3 km/hClear
6:53 PM-4.4 °C-11.1 °C60 %1026.8 hPa16.1 kmCalmClear
7:53 PM-7.2 °C-11.1 °C74 %1027.1 hPa16.1 kmCalmClear
8:53 PM-6.7 °C-11.7 °C68 %1026.4 hPa16.1 kmSSE (160°)7.4 km/hClear
9:53 PM-6.7 °C-10.6 °C74 %1025.7 hPa16.1 kmCalmClear
11:53 PM-4.4 °C-9.4 °C69 %1025.1 hPa16.1 kmCalmOvercast
Hourly data recorded from KARB, located 0 kilometers away from Ann Arbor, Michigan







STORIES FROM OUR PARTNERS